owner,sensor,date,latitude,longitude,air_temperature,qcFlag 
TCOON,ioos:station:TCOON:518:1,2016-12-01T00:12:00Z,29.5150,-94.5133,20.2,1111122 
TCOON,ioos:station:TCOON:518:1,2016-12-01T01:12:00Z,29.5150,-94.5133,19.1,1111122 
TCOON,ioos:station:TCOON:518:1,2016-12-01T02:12:00Z,29.5150,-94.5133,18.7,1111122 
TCOON,ioos:station:TCOON:518:1,2016-12-01T03:12:00Z,29.5150,-94.5133,17.8,1111122 
TCOON,ioos:station:TCOON:518:1,2016-12-01T04:18:00Z,29.5150,-94.5133,18.5,1111122 
TCOON,ioos:station:TCOON:518:1,2016-12-01T05:12:00Z,29.5150,-94.5133,18.6,1111122 
TCOON,ioos:station:TCOON:518:1,2016-12-01T06:12:00Z,29.5150,-94.5133,18.2,1111122 
TCOON,ioos:station:TCOON:518:1,2016-12-01T07:12:00Z,29.5150,-94.5133,17.6,1111122 
TCOON,ioos:station:TCOON:518:1,2016-12-01T08:12:00Z,29.5150,-94.5133,15.5,1111122 
TCOON,ioos:station:TCOON:518:1,2016-12-01T09:12:00Z,29.5150,-94.5133,15.2,1111122 
TCOON,ioos:station:TCOON:518:1,2016-12-01T10:12:00Z,29.5150,-94.5133,14.2,1111122 
TCOON,ioos:station:TCOON:518:1,2016-12-01T11:12:00Z,29.5150,-94.5133,14.1,1111122 
TCOON,ioos:station:TCOON:518:1,2016-12-01T12:12:00Z,29.5150,-94.5133,13.7,1111122 
TCOON,ioos:station:TCOON:518:1,2016-12-01T13:12:00Z,29.5150,-94.5133,14.0,1111122 
TCOON,ioos:station:TCOON:518:1,2016-12-01T15:30:00Z,29.5150,-94.5133,17.1,1111122 
TCOON,ioos:station:TCOON:518:1,2016-12-01T16:18:00Z,29.5150,-94.5133,18.1,1111122 
TCOON,ioos:station:TCOON:518:1,2016-12-01T17:30:00Z,29.5150,-94.5133,19.0,1111122 
TCOON,ioos:station:TCOON:518:1,2016-12-01T18:12:00Z,29.5150,-94.5133,18.8,1111122 
TCOON,ioos:station:TCOON:518:1,2016-12-01T19:12:00Z,29.5150,-94.5133,19.4,1111122 
TCOON,ioos:station:TCOON:518:1,2016-12-01T20:12:00Z,29.5150,-94.5133,19.6,1111122 
TCOON,ioos:station:TCOON:518:1,2016-12-01T21:12:00Z,29.5150,-94.5133,19.6,1111122 
TCOON,ioos:station:TCOON:518:1,2016-12-01T22:12:00Z,29.5150,-94.5133,19.8,1111122 
TCOON,ioos:station:TCOON:518:1,2016-12-01T23:12:00Z,29.5150,-94.5133,19.8,1111122 
TCOON,ioos:station:TCOON:518:1,2016-12-02T00:12:00Z,29.5150,-94.5133,20.1,1111122 
TCOON,ioos:station:TCOON:518:1,2016-12-02T01:12:00Z,29.5150,-94.5133,20.4,1111122 
TCOON,ioos:station:TCOON:518:1,2016-12-02T02:12:00Z,29.5150,-94.5133,20.6,1111122 
TCOON,ioos:station:TCOON:518:1,2016-12-02T03:12:00Z,29.5150,-94.5133,21.0,1111122 
TCOON,ioos:station:TCOON:518:1,2016-12-02T04:12:00Z,29.5150,-94.5133,21.3,1111122 
TCOON,ioos:station:TCOON:518:1,2016-12-02T05:12:00Z,29.5150,-94.5133,21.4,1111122 
TCOON,ioos:station:TCOON:518:1,2016-12-02T06:12:00Z,29.5150,-94.5133,21.5,1111122 
TCOON,ioos:station:TCOON:518:1,2016-12-02T07:12:00Z,29.5150,-94.5133,17.6,1111122 
TCOON,ioos:station:TCOON:518:1,2016-12-02T08:12:00Z,29.5150,-94.5133,17.4,1111122 
TCOON,ioos:station:TCOON:518:1,2016-12-02T09:12:00Z,29.5150,-94.5133,17.6,1111122 
TCOON,ioos:station:TCOON:518:1,2016-12-02T10:12:00Z,29.5150,-94.5133,18.2,1111122 
TCOON,ioos:station:TCOON:518:1,2016-12-02T14:54:00Z,29.5150,-94.5133,19.5,1111122 
TCOON,ioos:station:TCOON:518:1,2016-12-02T15:12:00Z,29.5150,-94.5133,20.3,1111122 
TCOON,ioos:station:TCOON:518:1,2016-12-02T16:12:00Z,29.5150,-94.5133,21.1,1111122 
TCOON,ioos:station:TCOON:518:1,2016-12-02T17:12:00Z,29.5150,-94.5133,20.9,1111122 
TCOON,ioos:station:TCOON:518:1,2016-12-02T18:12:00Z,29.5150,-94.5133,21.3,1111122 
TCOON,ioos:station:TCOON:518:1,2016-12-02T19:12:00Z,29.5150,-94.5133,21.4,1111122 
TCOON,ioos:station:TCOON:518:1,2016-12-02T20:12:00Z,29.5150,-94.5133,19.9,1111122 
TCOON,ioos:station:TCOON:518:1,2016-12-02T21:12:00Z,29.5150,-94.5133,18.9,1111122 
TCOON,ioos:station:TCOON:518:1,2016-12-16T21:54:00Z,29.5150,-94.5133,24.6,1111122 
TCOON,ioos:station:TCOON:518:1,2016-12-16T22:12:00Z,29.5150,-94.5133,24.3,1111122 
TCOON,ioos:station:TCOON:518:1,2016-12-16T23:12:00Z,29.5150,-94.5133,24.2,1111122 
TCOON,ioos:station:TCOON:518:1,2016-12-17T00:12:00Z,29.5150,-94.5133,25.1,1111122 
TCOON,ioos:station:TCOON:518:1,2016-12-17T01:12:00Z,29.5150,-94.5133,24.9,1111122 
TCOON,ioos:station:TCOON:518:1,2016-12-17T02:12:00Z,29.5150,-94.5133,24.2,1111122 
TCOON,ioos:station:TCOON:518:1,2016-12-17T03:12:00Z,29.5150,-94.5133,24.3,1111122 
TCOON,ioos:station:TCOON:518:1,2016-12-17T04:12:00Z,29.5150,-94.5133,25.0,1111122 
TCOON,ioos:station:TCOON:518:1,2016-12-17T05:12:00Z,29.5150,-94.5133,24.7,1111122 
TCOON,ioos:station:TCOON:518:1,2016-12-17T06:12:00Z,29.5150,-94.5133,25.0,1111122 
TCOON,ioos:station:TCOON:518:1,2016-12-17T07:18:00Z,29.5150,-94.5133,24.5,1111122 
TCOON,ioos:station:TCOON:518:1,2016-12-17T08:12:00Z,29.5150,-94.5133,24.0,1111122 
TCOON,ioos:station:TCOON:518:1,2016-12-17T09:12:00Z,29.5150,-94.5133,23.5,1111122 
TCOON,ioos:station:TCOON:518:1,2016-12-17T10:12:00Z,29.5150,-94.5133,23.5,1111122 
TCOON,ioos:station:TCOON:518:1,2016-12-17T11:12:00Z,29.5150,-94.5133,23.7,1111122 
TCOON,ioos:station:TCOON:518:1,2016-12-17T12:12:00Z,29.5150,-94.5133,23.7,1111122 
TCOON,ioos:station:TCOON:518:1,2016-12-17T13:12:00Z,29.5150,-94.5133,23.9,1111122 
TCOON,ioos:station:TCOON:518:1,2016-12-17T14:12:00Z,29.5150,-94.5133,24.2,1111122 
TCOON,ioos:station:TCOON:518:1,2016-12-17T15:12:00Z,29.5150,-94.5133,24.9,1111122 
TCOON,ioos:station:TCOON:518:1,2016-12-17T16:12:00Z,29.5150,-94.5133,26.4,1111122 
TCOON,ioos:station:TCOON:518:1,2016-12-17T17:12:00Z,29.5150,-94.5133,26.1,1111122 
TCOON,ioos:station:TCOON:518:1,2016-12-17T18:12:00Z,29.5150,-94.5133,26.9,1111122 
TCOON,ioos:station:TCOON:518:1,2016-12-17T19:18:00Z,29.5150,-94.5133,27.1,1111122 
TCOON,ioos:station:TCOON:518:1,2016-12-17T20:12:00Z,29.5150,-94.5133,26.1,1111122 
TCOON,ioos:station:TCOON:518:1,2016-12-17T21:12:00Z,29.5150,-94.5133,26.4,1111122 
TCOON,ioos:station:TCOON:518:1,2016-12-17T22:12:00Z,29.5150,-94.5133,26.0,1111122 
TCOON,ioos:station:TCOON:518:1,2016-12-17T23:12:00Z,29.5150,-94.5133,26.2,1111122 
TCOON,ioos:station:TCOON:518:1,2016-12-18T00:12:00Z,29.5150,-94.5133,26.3,1111122 
TCOON,ioos:station:TCOON:518:1,2016-12-18T01:12:00Z,29.5150,-94.5133,25.2,1111122 
TCOON,ioos:station:TCOON:518:1,2016-12-18T02:12:00Z,29.5150,-94.5133,25.6,1111122 
TCOON,ioos:station:TCOON:518:1,2016-12-18T03:18:00Z,29.5150,-94.5133,25.9,1111122 
TCOON,ioos:station:TCOON:518:1,2016-12-18T04:12:00Z,29.5150,-94.5133,25.5,1111122 
TCOON,ioos:station:TCOON:518:1,2016-12-18T05:12:00Z,29.5150,-94.5133,24.8,1111122 
TCOON,ioos:station:TCOON:518:1,2016-12-18T06:12:00Z,29.5150,-94.5133,25.3,1111122 
TCOON,ioos:station:TCOON:518:1,2016-12-18T07:12:00Z,29.5150,-94.5133,15.8,1111122 
TCOON,ioos:station:TCOON:518:1,2016-12-18T08:12:00Z,29.5150,-94.5133,14.4,1111122 
TCOON,ioos:station:TCOON:518:1,2016-12-18T09:12:00Z,29.5150,-94.5133,13.3,1111122 
TCOON,ioos:station:TCOON:518:1,2016-12-18T10:12:00Z,29.5150,-94.5133,12.6,1111122 
TCOON,ioos:station:TCOON:518:1,2016-12-18T11:18:00Z,29.5150,-94.5133,11.8,1111122 
TCOON,ioos:station:TCOON:518:1,2016-12-18T12:12:00Z,29.5150,-94.5133,10.9,1111122 
TCOON,ioos:station:TCOON:518:1,2016-12-18T13:12:00Z,29.5150,-94.5133,9.8,1111122 
TCOON,ioos:station:TCOON:518:1,2016-12-18T14:12:00Z,29.5150,-94.5133,9.2,1111122 
TCOON,ioos:station:TCOON:518:1,2016-12-18T15:12:00Z,29.5150,-94.5133,9.1,1111122 
TCOON,ioos:station:TCOON:518:1,2016-12-18T16:12:00Z,29.5150,-94.5133,9.4,1111122 
TCOON,ioos:station:TCOON:518:1,2016-12-18T17:12:00Z,29.5150,-94.5133,10.0,1111122 
TCOON,ioos:station:TCOON:518:1,2016-12-18T18:12:00Z,29.5150,-94.5133,10.5,1111122 
TCOON,ioos:station:TCOON:518:1,2016-12-18T19:12:00Z,29.5150,-94.5133,11.3,1111122 
TCOON,ioos:station:TCOON:518:1,2016-12-18T20:12:00Z,29.5150,-94.5133,11.6,1111122 
TCOON,ioos:station:TCOON:518:1,2016-12-18T21:12:00Z,29.5150,-94.5133,12.0,1111122 
TCOON,ioos:station:TCOON:518:1,2016-12-18T22:12:00Z,29.5150,-94.5133,12.5,1111122 
TCOON,ioos:station:TCOON:518:1,2016-12-18T23:12:00Z,29.5150,-94.5133,12.0,1111122 
TCOON,ioos:station:TCOON:518:1,2016-12-19T00:12:00Z,29.5150,-94.5133,11.1,1111122 
TCOON,ioos:station:TCOON:518:1,2016-12-19T01:12:00Z,29.5150,-94.5133,10.7,1111122 
TCOON,ioos:station:TCOON:518:1,2016-12-19T02:12:00Z,29.5150,-94.5133,10.1,1111122 
TCOON,ioos:station:TCOON:518:1,2016-12-19T03:12:00Z,29.5150,-94.5133,10.1,1111122 
TCOON,ioos:station:TCOON:518:1,2016-12-19T04:18:00Z,29.5150,-94.5133,10.0,1111122 
TCOON,ioos:station:TCOON:518:1,2016-12-19T05:12:00Z,29.5150,-94.5133,9.6,1111122 
TCOON,ioos:station:TCOON:518:1,2016-12-19T06:18:00Z,29.5150,-94.5133,9.2,1111122 
TCOON,ioos:station:TCOON:518:1,2016-12-19T07:12:00Z,29.5150,-94.5133,8.9,1111122 
TCOON,ioos:station:TCOON:518:1,2016-12-19T08:12:00Z,29.5150,-94.5133,8.6,1111122 
TCOON,ioos:station:TCOON:518:1,2016-12-19T09:12:00Z,29.5150,-94.5133,8.2,1111122 
TCOON,ioos:station:TCOON:518:1,2016-12-19T10:12:00Z,29.5150,-94.5133,7.3,1111122 
TCOON,ioos:station:TCOON:518:1,2016-12-19T11:12:00Z,29.5150,-94.5133,6.8,1111122 
TCOON,ioos:station:TCOON:518:1,2016-12-19T12:12:00Z,29.5150,-94.5133,6.3,1111122 
TCOON,ioos:station:TCOON:518:1,2016-12-19T13:12:00Z,29.5150,-94.5133,6.1,1111122 
TCOON,ioos:station:TCOON:518:1,2016-12-19T14:12:00Z,29.5150,-94.5133,6.1,1111122 
TCOON,ioos:station:TCOON:518:1,2016-12-19T15:12:00Z,29.5150,-94.5133,6.4,1111122 
TCOON,ioos:station:TCOON:518:1,2016-12-19T16:18:00Z,29.5150,-94.5133,7.4,1111122 
TCOON,ioos:station:TCOON:518:1,2016-12-19T17:12:00Z,29.5150,-94.5133,9.1,1111122 
TCOON,ioos:station:TCOON:518:1,2016-12-19T18:12:00Z,29.5150,-94.5133,10.5,1111122 
TCOON,ioos:station:TCOON:518:1,2016-12-19T19:12:00Z,29.5150,-94.5133,12.3,1111122 
TCOON,ioos:station:TCOON:518:1,2016-12-19T20:12:00Z,29.5150,-94.5133,14.1,1111122 
TCOON,ioos:station:TCOON:518:1,2016-12-19T21:18:00Z,29.5150,-94.5133,15.3,1111122 
TCOON,ioos:station:TCOON:518:1,2016-12-19T22:12:00Z,29.5150,-94.5133,16.1,1111122 
TCOON,ioos:station:TCOON:518:1,2016-12-19T23:12:00Z,29.5150,-94.5133,15.4,1111122 
TCOON,ioos:station:TCOON:518:1,2016-12-20T00:12:00Z,29.5150,-94.5133,14.0,1111122 
TCOON,ioos:station:TCOON:518:1,2016-12-20T01:12:00Z,29.5150,-94.5133,13.1,1111122 
TCOON,ioos:station:TCOON:518:1,2016-12-20T02:12:00Z,29.5150,-94.5133,12.4,1111122 
TCOON,ioos:station:TCOON:518:1,2016-12-20T03:12:00Z,29.5150,-94.5133,11.3,1111122 
TCOON,ioos:station:TCOON:518:1,2016-12-20T04:12:00Z,29.5150,-94.5133,10.6,1111122 
TCOON,ioos:station:TCOON:518:1,2016-12-20T05:12:00Z,29.5150,-94.5133,10.3,1111122 
TCOON,ioos:station:TCOON:518:1,2016-12-20T06:12:00Z,29.5150,-94.5133,9.9,1111122 
TCOON,ioos:station:TCOON:518:1,2016-12-20T07:12:00Z,29.5150,-94.5133,9.4,1111122 
TCOON,ioos:station:TCOON:518:1,2016-12-20T08:12:00Z,29.5150,-94.5133,9.0,1111122 
TCOON,ioos:station:TCOON:518:1,2016-12-20T09:12:00Z,29.5150,-94.5133,8.6,1111122 
TCOON,ioos:station:TCOON:518:1,2016-12-20T10:12:00Z,29.5150,-94.5133,8.6,1111122 
TCOON,ioos:station:TCOON:518:1,2016-12-20T11:12:00Z,29.5150,-94.5133,7.9,1111122 
TCOON,ioos:station:TCOON:518:1,2016-12-20T12:18:00Z,29.5150,-94.5133,7.5,1111122 
TCOON,ioos:station:TCOON:518:1,2016-12-20T13:12:00Z,29.5150,-94.5133,7.7,1111122 
TCOON,ioos:station:TCOON:518:1,2016-12-20T14:12:00Z,29.5150,-94.5133,8.0,1111122 
TCOON,ioos:station:TCOON:518:1,2016-12-20T15:12:00Z,29.5150,-94.5133,9.1,1111122 
TCOON,ioos:station:TCOON:518:1,2016-12-20T16:18:00Z,29.5150,-94.5133,11.5,1111122 
TCOON,ioos:station:TCOON:518:1,2016-12-20T17:12:00Z,29.5150,-94.5133,13.8,1111122 
TCOON,ioos:station:TCOON:518:1,2016-12-20T18:12:00Z,29.5150,-94.5133,16.4,1111122 
TCOON,ioos:station:TCOON:518:1,2016-12-20T19:12:00Z,29.5150,-94.5133,16.6,1111122 
TCOON,ioos:station:TCOON:518:1,2016-12-20T20:18:00Z,29.5150,-94.5133,17.5,1111122 
TCOON,ioos:station:TCOON:518:1,2016-12-20T21:12:00Z,29.5150,-94.5133,18.2,1111122 
TCOON,ioos:station:TCOON:518:1,2016-12-20T22:12:00Z,29.5150,-94.5133,16.8,1111122 
TCOON,ioos:station:TCOON:518:1,2016-12-20T23:12:00Z,29.5150,-94.5133,17.3,1111122 
TCOON,ioos:station:TCOON:518:1,2016-12-21T00:12:00Z,29.5150,-94.5133,15.7,1111122 
TCOON,ioos:station:TCOON:518:1,2016-12-21T01:12:00Z,29.5150,-94.5133,16.4,1111122 
TCOON,ioos:station:TCOON:518:1,2016-12-21T02:12:00Z,29.5150,-94.5133,16.4,1111122 
TCOON,ioos:station:TCOON:518:1,2016-12-21T03:12:00Z,29.5150,-94.5133,17.0,1111122 
TCOON,ioos:station:TCOON:518:1,2016-12-21T04:12:00Z,29.5150,-94.5133,17.1,1111122 
TCOON,ioos:station:TCOON:518:1,2016-12-21T05:12:00Z,29.5150,-94.5133,16.6,1111122 
TCOON,ioos:station:TCOON:518:1,2016-12-21T06:18:00Z,29.5150,-94.5133,15.5,1111122 
TCOON,ioos:station:TCOON:518:1,2016-12-21T07:12:00Z,29.5150,-94.5133,15.2,1111122 
TCOON,ioos:station:TCOON:518:1,2016-12-21T08:12:00Z,29.5150,-94.5133,15.8,1111122 
TCOON,ioos:station:TCOON:518:1,2016-12-21T09:18:00Z,29.5150,-94.5133,16.2,1111122 
TCOON,ioos:station:TCOON:518:1,2016-12-21T10:12:00Z,29.5150,-94.5133,16.1,1111122 
TCOON,ioos:station:TCOON:518:1,2016-12-21T11:12:00Z,29.5150,-94.5133,16.8,1111122 
TCOON,ioos:station:TCOON:518:1,2016-12-21T12:12:00Z,29.5150,-94.5133,16.7,1111122 
TCOON,ioos:station:TCOON:518:1,2016-12-21T13:12:00Z,29.5150,-94.5133,17.5,1111122 
TCOON,ioos:station:TCOON:518:1,2016-12-21T14:12:00Z,29.5150,-94.5133,18.1,1111122 
TCOON,ioos:station:TCOON:518:1,2016-12-21T15:12:00Z,29.5150,-94.5133,21.7,1111122 
TCOON,ioos:station:TCOON:518:1,2016-12-21T16:12:00Z,29.5150,-94.5133,22.7,1111122 
TCOON,ioos:station:TCOON:518:1,2016-12-21T17:12:00Z,29.5150,-94.5133,24.3,1111122 
TCOON,ioos:station:TCOON:518:1,2016-12-21T18:12:00Z,29.5150,-94.5133,25.0,1111122 
TCOON,ioos:station:TCOON:518:1,2016-12-21T19:12:00Z,29.5150,-94.5133,25.2,1111122 
TCOON,ioos:station:TCOON:518:1,2016-12-21T20:12:00Z,29.5150,-94.5133,25.0,1111122 
TCOON,ioos:station:TCOON:518:1,2016-12-21T21:12:00Z,29.5150,-94.5133,24.7,1111122 
TCOON,ioos:station:TCOON:518:1,2016-12-21T22:18:00Z,29.5150,-94.5133,24.8,1111122 
TCOON,ioos:station:TCOON:518:1,2016-12-21T23:12:00Z,29.5150,-94.5133,24.0,1111122 
TCOON,ioos:station:TCOON:518:1,2016-12-22T00:12:00Z,29.5150,-94.5133,22.8,1111122 
TCOON,ioos:station:TCOON:518:1,2016-12-22T01:12:00Z,29.5150,-94.5133,22.8,1111122 
TCOON,ioos:station:TCOON:518:1,2016-12-22T02:12:00Z,29.5150,-94.5133,22.4,1111122 
TCOON,ioos:station:TCOON:518:1,2016-12-22T03:18:00Z,29.5150,-94.5133,23.2,1111122 
TCOON,ioos:station:TCOON:518:1,2016-12-22T04:12:00Z,29.5150,-94.5133,23.3,1111122 
TCOON,ioos:station:TCOON:518:1,2016-12-22T05:12:00Z,29.5150,-94.5133,23.5,1111122 
TCOON,ioos:station:TCOON:518:1,2016-12-22T06:12:00Z,29.5150,-94.5133,23.3,1111122 
TCOON,ioos:station:TCOON:518:1,2016-12-22T07:12:00Z,29.5150,-94.5133,23.3,1111122 
TCOON,ioos:station:TCOON:518:1,2016-12-22T08:12:00Z,29.5150,-94.5133,21.8,1111122 
TCOON,ioos:station:TCOON:518:1,2016-12-22T09:18:00Z,29.5150,-94.5133,20.3,1111122 
TCOON,ioos:station:TCOON:518:1,2016-12-22T10:12:00Z,29.5150,-94.5133,21.0,1111122 
TCOON,ioos:station:TCOON:518:1,2016-12-22T11:12:00Z,29.5150,-94.5133,21.3,1111122 
TCOON,ioos:station:TCOON:518:1,2016-12-22T12:12:00Z,29.5150,-94.5133,21.3,1111122 
TCOON,ioos:station:TCOON:518:1,2016-12-22T13:12:00Z,29.5150,-94.5133,21.9,1111122 
TCOON,ioos:station:TCOON:518:1,2016-12-22T14:12:00Z,29.5150,-94.5133,22.1,1111122 
TCOON,ioos:station:TCOON:518:1,2016-12-22T15:12:00Z,29.5150,-94.5133,22.2,1111122 
TCOON,ioos:station:TCOON:518:1,2016-12-22T16:12:00Z,29.5150,-94.5133,22.4,1111122 
TCOON,ioos:station:TCOON:518:1,2016-12-22T17:18:00Z,29.5150,-94.5133,23.2,1111122 
TCOON,ioos:station:TCOON:518:1,2016-12-22T18:12:00Z,29.5150,-94.5133,23.7,1111122 
TCOON,ioos:station:TCOON:518:1,2016-12-22T19:12:00Z,29.5150,-94.5133,23.0,1111122 
TCOON,ioos:station:TCOON:518:1,2016-12-22T20:12:00Z,29.5150,-94.5133,23.3,1111122 
TCOON,ioos:station:TCOON:518:1,2016-12-22T21:12:00Z,29.5150,-94.5133,23.1,1111122 
TCOON,ioos:station:TCOON:518:1,2016-12-22T22:12:00Z,29.5150,-94.5133,23.3,1111122 
TCOON,ioos:station:TCOON:518:1,2016-12-22T23:12:00Z,29.5150,-94.5133,22.9,1111122 
TCOON,ioos:station:TCOON:518:1,2016-12-23T00:12:00Z,29.5150,-94.5133,22.9,1111122 
TCOON,ioos:station:TCOON:518:1,2016-12-23T01:18:00Z,29.5150,-94.5133,23.0,1111122 
TCOON,ioos:station:TCOON:518:1,2016-12-23T02:12:00Z,29.5150,-94.5133,23.1,1111122 
TCOON,ioos:station:TCOON:518:1,2016-12-23T03:12:00Z,29.5150,-94.5133,22.7,1111122 
TCOON,ioos:station:TCOON:518:1,2016-12-23T04:18:00Z,29.5150,-94.5133,22.8,1111122 
TCOON,ioos:station:TCOON:518:1,2016-12-23T05:12:00Z,29.5150,-94.5133,22.9,1111122 
TCOON,ioos:station:TCOON:518:1,2016-12-23T06:18:00Z,29.5150,-94.5133,23.0,1111122 
TCOON,ioos:station:TCOON:518:1,2016-12-23T07:18:00Z,29.5150,-94.5133,22.8,1111122 
TCOON,ioos:station:TCOON:518:1,2016-12-23T08:12:00Z,29.5150,-94.5133,22.7,1111122 
TCOON,ioos:station:TCOON:518:1,2016-12-23T09:12:00Z,29.5150,-94.5133,22.5,1111122 
TCOON,ioos:station:TCOON:518:1,2016-12-23T10:12:00Z,29.5150,-94.5133,22.0,1111122 
TCOON,ioos:station:TCOON:518:1,2016-12-23T11:12:00Z,29.5150,-94.5133,21.6,1111122 
TCOON,ioos:station:TCOON:518:1,2016-12-23T12:12:00Z,29.5150,-94.5133,21.7,1111122 
TCOON,ioos:station:TCOON:518:1,2016-12-23T13:12:00Z,29.5150,-94.5133,21.8,1111122 
TCOON,ioos:station:TCOON:518:1,2016-12-23T14:12:00Z,29.5150,-94.5133,22.0,1111122 
TCOON,ioos:station:TCOON:518:1,2016-12-23T15:12:00Z,29.5150,-94.5133,22.9,1111122 
TCOON,ioos:station:TCOON:518:1,2016-12-23T16:12:00Z,29.5150,-94.5133,24.1,1111122 
TCOON,ioos:station:TCOON:518:1,2016-12-23T17:12:00Z,29.5150,-94.5133,24.8,1111122 
TCOON,ioos:station:TCOON:518:1,2016-12-23T18:12:00Z,29.5150,-94.5133,25.2,1111122 
TCOON,ioos:station:TCOON:518:1,2016-12-23T19:12:00Z,29.5150,-94.5133,25.6,1111122 
TCOON,ioos:station:TCOON:518:1,2016-12-23T20:12:00Z,29.5150,-94.5133,25.1,1111122 
TCOON,ioos:station:TCOON:518:1,2016-12-23T21:12:00Z,29.5150,-94.5133,24.8,1111122 
TCOON,ioos:station:TCOON:518:1,2016-12-23T22:12:00Z,29.5150,-94.5133,25.3,1111122 
TCOON,ioos:station:TCOON:518:1,2016-12-23T23:18:00Z,29.5150,-94.5133,24.9,1111122 
TCOON,ioos:station:TCOON:518:1,2016-12-24T00:12:00Z,29.5150,-94.5133,24.4,1111122 
TCOON,ioos:station:TCOON:518:1,2016-12-24T01:12:00Z,29.5150,-94.5133,24.5,1111122 
TCOON,ioos:station:TCOON:518:1,2016-12-24T02:18:00Z,29.5150,-94.5133,24.2,1111122 
TCOON,ioos:station:TCOON:518:1,2016-12-24T03:12:00Z,29.5150,-94.5133,24.2,1111122 
TCOON,ioos:station:TCOON:518:1,2016-12-24T04:12:00Z,29.5150,-94.5133,24.0,1111122 
TCOON,ioos:station:TCOON:518:1,2016-12-24T05:12:00Z,29.5150,-94.5133,24.2,1111122 
TCOON,ioos:station:TCOON:518:1,2016-12-24T06:12:00Z,29.5150,-94.5133,24.4,1111122 
TCOON,ioos:station:TCOON:518:1,2016-12-24T07:12:00Z,29.5150,-94.5133,24.2,1111122 
TCOON,ioos:station:TCOON:518:1,2016-12-24T08:12:00Z,29.5150,-94.5133,24.8,1111122 
TCOON,ioos:station:TCOON:518:1,2016-12-24T09:12:00Z,29.5150,-94.5133,24.3,1111122 
TCOON,ioos:station:TCOON:518:1,2016-12-24T10:12:00Z,29.5150,-94.5133,24.1,1111122 
TCOON,ioos:station:TCOON:518:1,2016-12-24T11:12:00Z,29.5150,-94.5133,23.1,1111122 
TCOON,ioos:station:TCOON:518:1,2016-12-24T12:12:00Z,29.5150,-94.5133,23.8,1111122 
TCOON,ioos:station:TCOON:518:1,2016-12-24T13:12:00Z,29.5150,-94.5133,23.6,1111122 
TCOON,ioos:station:TCOON:518:1,2016-12-24T14:12:00Z,29.5150,-94.5133,23.5,1111122 
TCOON,ioos:station:TCOON:518:1,2016-12-24T15:12:00Z,29.5150,-94.5133,25.1,1111122 
TCOON,ioos:station:TCOON:518:1,2016-12-24T16:12:00Z,29.5150,-94.5133,25.7,1111122 
TCOON,ioos:station:TCOON:518:1,2016-12-24T17:12:00Z,29.5150,-94.5133,26.4,1111122 
TCOON,ioos:station:TCOON:518:1,2016-12-24T18:12:00Z,29.5150,-94.5133,26.6,1111122 
TCOON,ioos:station:TCOON:518:1,2016-12-24T19:12:00Z,29.5150,-94.5133,26.6,1111122 
TCOON,ioos:station:TCOON:518:1,2016-12-24T20:12:00Z,29.5150,-94.5133,26.1,1111122 
TCOON,ioos:station:TCOON:518:1,2016-12-24T21:18:00Z,29.5150,-94.5133,26.3,1111122 
TCOON,ioos:station:TCOON:518:1,2016-12-24T22:12:00Z,29.5150,-94.5133,26.1,1111122 
TCOON,ioos:station:TCOON:518:1,2016-12-24T23:12:00Z,29.5150,-94.5133,25.3,1111122 
TCOON,ioos:station:TCOON:518:1,2016-12-25T00:12:00Z,29.5150,-94.5133,24.8,1111122 
TCOON,ioos:station:TCOON:518:1,2016-12-25T01:12:00Z,29.5150,-94.5133,24.4,1111122 
TCOON,ioos:station:TCOON:518:1,2016-12-25T02:12:00Z,29.5150,-94.5133,24.6,1111122 
TCOON,ioos:station:TCOON:518:1,2016-12-25T03:12:00Z,29.5150,-94.5133,24.7,1111122 
TCOON,ioos:station:TCOON:518:1,2016-12-25T04:12:00Z,29.5150,-94.5133,24.5,1111122 
TCOON,ioos:station:TCOON:518:1,2016-12-25T05:12:00Z,29.5150,-94.5133,24.4,1111122 
TCOON,ioos:station:TCOON:518:1,2016-12-25T06:18:00Z,29.5150,-94.5133,24.9,1111122 
TCOON,ioos:station:TCOON:518:1,2016-12-25T07:12:00Z,29.5150,-94.5133,24.6,1111122 
TCOON,ioos:station:TCOON:518:1,2016-12-25T08:12:00Z,29.5150,-94.5133,24.3,1111122 
TCOON,ioos:station:TCOON:518:1,2016-12-25T09:18:00Z,29.5150,-94.5133,24.3,1111122 
TCOON,ioos:station:TCOON:518:1,2016-12-25T10:12:00Z,29.5150,-94.5133,24.6,1111122 
TCOON,ioos:station:TCOON:518:1,2016-12-25T11:12:00Z,29.5150,-94.5133,25.6,1111122 
TCOON,ioos:station:TCOON:518:1,2016-12-25T12:12:00Z,29.5150,-94.5133,25.2,1111122 
TCOON,ioos:station:TCOON:518:1,2016-12-25T13:12:00Z,29.5150,-94.5133,24.9,1111122 
TCOON,ioos:station:TCOON:518:1,2016-12-25T14:12:00Z,29.5150,-94.5133,25.0,1111122 
TCOON,ioos:station:TCOON:518:1,2016-12-25T15:12:00Z,29.5150,-94.5133,25.4,1111122 
TCOON,ioos:station:TCOON:518:1,2016-12-25T16:12:00Z,29.5150,-94.5133,26.0,1111122 
TCOON,ioos:station:TCOON:518:1,2016-12-25T17:18:00Z,29.5150,-94.5133,26.2,1111122 
TCOON,ioos:station:TCOON:518:1,2016-12-25T18:12:00Z,29.5150,-94.5133,26.7,1111122 
TCOON,ioos:station:TCOON:518:1,2016-12-25T19:12:00Z,29.5150,-94.5133,26.6,1111122 
TCOON,ioos:station:TCOON:518:1,2016-12-25T20:18:00Z,29.5150,-94.5133,26.6,1111122 
TCOON,ioos:station:TCOON:518:1,2016-12-25T21:12:00Z,29.5150,-94.5133,26.6,1111122 
TCOON,ioos:station:TCOON:518:1,2016-12-25T22:12:00Z,29.5150,-94.5133,26.6,1111122 
TCOON,ioos:station:TCOON:518:1,2016-12-25T23:12:00Z,29.5150,-94.5133,26.2,1111122 
TCOON,ioos:station:TCOON:518:1,2016-12-26T00:12:00Z,29.5150,-94.5133,25.8,1111122 
TCOON,ioos:station:TCOON:518:1,2016-12-26T01:12:00Z,29.5150,-94.5133,25.6,1111122 
TCOON,ioos:station:TCOON:518:1,2016-12-26T02:12:00Z,29.5150,-94.5133,25.5,1111122 
TCOON,ioos:station:TCOON:518:1,2016-12-26T03:12:00Z,29.5150,-94.5133,25.9,1111122 
TCOON,ioos:station:TCOON:518:1,2016-12-26T04:12:00Z,29.5150,-94.5133,25.8,1111122 
TCOON,ioos:station:TCOON:518:1,2016-12-26T05:12:00Z,29.5150,-94.5133,25.8,1111122 
TCOON,ioos:station:TCOON:518:1,2016-12-26T06:12:00Z,29.5150,-94.5133,26.2,1111122 
TCOON,ioos:station:TCOON:518:1,2016-12-26T07:12:00Z,29.5150,-94.5133,26.2,1111122 
TCOON,ioos:station:TCOON:518:1,2016-12-26T08:12:00Z,29.5150,-94.5133,26.0,1111122 
TCOON,ioos:station:TCOON:518:1,2016-12-26T09:12:00Z,29.5150,-94.5133,26.0,1111122 
TCOON,ioos:station:TCOON:518:1,2016-12-26T10:18:00Z,29.5150,-94.5133,25.7,1111122 
TCOON,ioos:station:TCOON:518:1,2016-12-26T11:12:00Z,29.5150,-94.5133,25.7,1111122 
TCOON,ioos:station:TCOON:518:1,2016-12-26T12:12:00Z,29.5150,-94.5133,25.6,1111122 
TCOON,ioos:station:TCOON:518:1,2016-12-26T13:12:00Z,29.5150,-94.5133,25.9,1111122 
TCOON,ioos:station:TCOON:518:1,2016-12-26T14:12:00Z,29.5150,-94.5133,25.9,1111122 
TCOON,ioos:station:TCOON:518:1,2016-12-26T15:12:00Z,29.5150,-94.5133,26.2,1111122 
TCOON,ioos:station:TCOON:518:1,2016-12-26T16:12:00Z,29.5150,-94.5133,26.2,1111122 
TCOON,ioos:station:TCOON:518:1,2016-12-26T17:12:00Z,29.5150,-94.5133,26.7,1111122 
TCOON,ioos:station:TCOON:518:1,2016-12-26T18:12:00Z,29.5150,-94.5133,26.7,1111122 
TCOON,ioos:station:TCOON:518:1,2016-12-26T19:12:00Z,29.5150,-94.5133,26.9,1111122 
TCOON,ioos:station:TCOON:518:1,2016-12-26T20:12:00Z,29.5150,-94.5133,26.8,1111122 
TCOON,ioos:station:TCOON:518:1,2016-12-26T21:12:00Z,29.5150,-94.5133,26.3,1111122 
TCOON,ioos:station:TCOON:518:1,2016-12-26T22:12:00Z,29.5150,-94.5133,26.1,1111122 
TCOON,ioos:station:TCOON:518:1,2016-12-26T23:12:00Z,29.5150,-94.5133,26.0,1111122 
TCOON,ioos:station:TCOON:518:1,2016-12-27T00:12:00Z,29.5150,-94.5133,25.7,1111122 
TCOON,ioos:station:TCOON:518:1,2016-12-27T01:12:00Z,29.5150,-94.5133,25.5,1111122 
TCOON,ioos:station:TCOON:518:1,2016-12-27T02:12:00Z,29.5150,-94.5133,25.4,1111122 